This demonstration page uses our WeatherBlox Daily Observations layout. Learn more.

Left ArrowRight Arrow

41.55636, -103.73856

Hourly Observations for February 25, 2016

Temp ( °F °C ) Dew Point ( °F °C ) Humidity (%) Winds ( mph kmh ) Pressure ( in mb ) Visibility ( mi km ) Precip ( " mm )
12:53 am 00:53 Clear 17 -8.3 10 -12.2 74 74 NNW 6 9 30.38 1029 10 16.0934 N/A
1:53 am 01:53 Clear 18 -7.8 9 -12.8 68 68 NNW 6 9 30.37 1029 10 16.0934 N/A
2:53 am 02:53 Clear 16 -8.9 8 -13.3 71 71 N 5 7 30.37 1029 10 16.0934 N/A
3:53 am 03:53 Clear 16 -8.9 8 -13.3 71 71 NNW 6 9 30.38 1029 10 16.0934 N/A
4:53 am 04:53 Clear 17 -8.3 9 -12.8 70 70 NNW 5 7 30.4 1030 10 16.0934 N/A
5:53 am 05:53 Clear 16 -8.9 9 -12.8 74 74 NW 6 9 30.44 1031 10 16.0934 N/A
6:53 am 06:53 Sunny 14 -10 9 -12.8 80 80 NW 3 6 30.48 1032 10 16.0934 N/A
7:53 am 07:53 Sunny 22 -5.6 13 -10.6 68 68 N N/A 30.48 1032 10 16.0934 N/A
8:53 am 08:53 Sunny 28 -2.2 16 -8.9 60 60 VRB 3 6 30.48 1032 10 16.0934 N/A
9:53 am 09:53 Sunny 31 -0.6 15 -9.4 52 52 WSW 6 9 30.48 1032 10 16.0934 N/A
10:53 am 10:53 Sunny 35 1.7 13 -10.6 40 40 WSW 5 7 30.45 1031 10 16.0934 N/A
11:53 am 11:53 Sunny 39 3.9 9 -12.8 29 29 NW 3 6 30.42 1030 10 16.0934 N/A
12:53 pm 12:53 Sunny 40 4.4 9 -12.8 28 28 SSE 6 9 30.39 1029 10 16.0934 N/A
1:53 pm 13:53 Sunny 43 6.1 9 -12.8 25 25 SSE 5 7 30.33 1027 10 16.0934 N/A
2:53 pm 14:53 Sunny 46 7.8 11 -11.7 24 24 S 6 9 30.31 1026 10 16.0934 N/A
3:53 pm 15:53 Sunny 47 8.3 11 -11.7 23 23 N N/A 30.27 1025 10 16.0934 N/A
4:53 pm 16:53 Sunny 45 7.2 12 -11.1 26 26 E 8 13 30.28 1025 10 16.0934 N/A
5:53 pm 17:53 Clear 33 0.6 12 -11.1 42 42 E 7 11 30.32 1027 10 16.0934 N/A
6:53 pm 18:53 Clear 29 -1.7 12 -11.1 49 49 E 7 11 30.33 1027 10 16.0934 N/A
7:53 pm 19:53 Clear 30 -1.1 12 -11.1 47 47 E 9 15 30.28 1025 10 16.0934 N/A
8:53 pm 20:53 Clear 29 -1.7 13 -10.6 51 51 E 10 17 30.25 1024 10 16.0934 N/A
9:53 pm 21:53 Clear 31 -0.6 14 -10 49 49 E 5 7 30.24 1024 10 16.0934 N/A
10:53 pm 22:53 Clear 28 -2.2 13 -10.6 53 53 N 5 7 30.24 1024 10 16.0934 N/A
11:53 pm 23:53 Clear 25 -3.9 15 -9.4 66 66 NNW 7 11 30.23 1024 10 16.0934 N/A

Powered by AerisWeather